Time,TemperatureF,DewpointF,PressureIn,WindDirection,WindDirectionDegrees,WindSpeedMPH,WindSpeedGustMPH,Humidity,HourlyPrecipIn,Conditions,Clouds,dailyrainin,SoftwareType,DateUTC
2013-02-15 00:00:00,53.4,23.6,30.06,NE,40,0.0,0.0,31,0.00,,CLR,0.00,VWS V14.01,2013-02-15 08:00:00,
2013-02-15 00:05:00,53.4,24.3,30.06,NE,40,0.0,0.0,32,0.00,,CLR,0.00,VWS V14.01,2013-02-15 08:05:00,
2013-02-15 00:10:00,53.2,24.2,30.06,NE,40,0.0,0.0,32,0.00,,CLR,0.00,VWS V14.01,2013-02-15 08:10:00,
2013-02-15 00:15:00,53.4,25.1,30.06,NE,40,0.0,0.0,33,0.00,,CLR,0.00,VWS V14.01,2013-02-15 08:15:00,
2013-02-15 00:20:00,53.4,25.1,30.06,NE,40,0.0,0.0,33,0.00,,CLR,0.00,VWS V14.01,2013-02-15 08:20:00,
2013-02-15 00:25:00,53.6,25.2,30.06,NE,40,0.0,0.0,33,0.00,,CLR,0.00,VWS V14.01,2013-02-15 08:25:00,
2013-02-15 00:30:00,53.6,25.2,30.06,NE,40,0.0,0.0,33,0.00,,CLR,0.00,VWS V14.01,2013-02-15 08:30:00,
2013-02-15 00:34:00,53.4,25.1,30.06,NE,40,0.0,0.0,33,0.00,,CLR,0.00,VWS V14.01,2013-02-15 08:34:00,
2013-02-15 00:39:00,53.4,25.1,30.06,NE,40,0.0,0.0,33,0.00,,CLR,0.00,VWS V14.01,2013-02-15 08:39:00,
2013-02-15 00:44:00,53.2,24.9,30.06,NE,39,0.0,0.0,33,0.00,,CLR,0.00,VWS V14.01,2013-02-15 08:44:00,
2013-02-15 00:49:00,53.1,24.7,30.06,NE,40,0.0,0.0,33,0.00,,CLR,0.00,VWS V14.01,2013-02-15 08:49:00,
2013-02-15 00:54:00,53.2,25.6,30.06,NE,40,0.0,0.0,34,0.00,,CLR,0.00,VWS V14.01,2013-02-15 08:54:00,
2013-02-15 00:59:00,53.4,25.8,30.06,NE,40,0.0,0.0,34,0.00,,CLR,0.00,VWS V14.01,2013-02-15 08:59:00,
2013-02-15 01:04:00,53.4,25.8,30.06,NE,41,0.0,0.0,34,0.00,,CLR,0.00,VWS V14.01,2013-02-15 09:04:00,
2013-02-15 01:09:00,54.0,27.0,30.06,NE,38,0.0,0.0,35,0.00,,CLR,0.00,VWS V14.01,2013-02-15 09:09:00,
2013-02-15 01:14:00,54.1,26.4,30.06,NE,38,0.0,0.0,34,0.00,,CLR,0.00,VWS V14.01,2013-02-15 09:14:00,
2013-02-15 01:19:00,53.8,26.1,30.06,NE,38,0.0,0.0,34,0.00,,CLR,0.00,VWS V14.01,2013-02-15 09:19:00,
2013-02-15 01:24:00,53.4,25.8,30.06,NE,38,0.0,0.0,34,0.00,,CLR,0.00,VWS V14.01,2013-02-15 09:24:00,
2013-02-15 01:29:00,53.2,25.6,30.06,NE,38,0.0,0.0,34,0.00,,CLR,0.00,VWS V14.01,2013-02-15 09:29:00,
2013-02-15 01:34:00,53.1,26.1,30.06,NE,38,0.0,0.0,35,0.00,,CLR,0.00,VWS V14.01,2013-02-15 09:34:00,
2013-02-15 01:39:00,53.1,26.1,30.06,NE,39,0.0,0.0,35,0.00,,CLR,0.00,VWS V14.01,2013-02-15 09:39:00,
2013-02-15 01:44:00,53.1,26.8,30.06,NE,38,0.0,0.0,36,0.00,,CLR,0.00,VWS V14.01,2013-02-15 09:44:00,
2013-02-15 01:49:00,53.2,27.0,30.06,NE,39,0.0,0.0,36,0.00,,CLR,0.00,VWS V14.01,2013-02-15 09:49:00,
2013-02-15 01:54:00,53.1,26.8,30.06,NE,39,0.0,0.0,36,0.00,,CLR,0.00,VWS V14.01,2013-02-15 09:54:00,
2013-02-15 01:59:00,53.1,26.8,30.06,NE,39,0.0,0.0,36,0.00,,CLR,0.00,VWS V14.01,2013-02-15 09:59:00,
2013-02-15 02:04:00,53.1,26.8,30.06,NE,39,0.0,0.0,36,0.00,,CLR,0.00,VWS V14.01,2013-02-15 10:04:00,
2013-02-15 02:09:00,53.1,26.8,30.06,NE,39,0.0,0.0,36,0.00,,CLR,0.00,VWS V14.01,2013-02-15 10:09:00,
2013-02-15 02:14:00,53.2,27.0,30.06,NE,40,0.0,0.0,36,0.00,,CLR,0.00,VWS V14.01,2013-02-15 10:14:00,
2013-02-15 02:19:00,53.2,27.0,30.06,NE,40,0.0,0.0,36,0.00,,CLR,0.00,VWS V14.01,2013-02-15 10:19:00,
2013-02-15 02:24:00,53.2,27.0,30.06,NE,40,0.0,0.0,36,0.00,,CLR,0.00,VWS V14.01,2013-02-15 10:24:00,
2013-02-15 02:29:00,53.1,26.8,30.06,NE,39,0.0,0.0,36,0.00,,CLR,0.00,VWS V14.01,2013-02-15 10:29:00,
2013-02-15 02:34:00,52.9,26.7,30.06,NE,39,0.0,0.0,36,0.00,,CLR,0.00,VWS V14.01,2013-02-15 10:34:00,
2013-02-15 02:39:00,52.9,26.7,30.06,NE,39,0.0,0.0,36,0.00,,CLR,0.00,VWS V14.01,2013-02-15 10:39:00,
2013-02-15 02:44:00,52.9,26.7,30.06,NE,39,0.0,0.0,36,0.00,,CLR,0.00,VWS V14.01,2013-02-15 10:44:00,
2013-02-15 02:49:00,52.2,26.0,30.06,NE,39,0.0,0.0,36,0.00,,CLR,0.00,VWS V14.01,2013-02-15 10:49:00,
2013-02-15 02:54:00,52.2,26.0,30.06,NE,39,0.0,0.0,36,0.00,,CLR,0.00,VWS V14.01,2013-02-15 10:54:00,
2013-02-15 02:59:00,52.2,26.0,30.06,NE,39,0.0,0.0,36,0.00,,CLR,0.00,VWS V14.01,2013-02-15 10:59:00,
2013-02-15 03:04:00,52.2,26.0,30.06,NE,39,0.0,0.0,36,0.00,,CLR,0.00,VWS V14.01,2013-02-15 11:04:00,
2013-02-15 03:09:00,52.2,26.0,30.06,NE,39,0.0,0.0,36,0.00,,CLR,0.00,VWS V14.01,2013-02-15 11:09:00,
2013-02-15 03:14:00,52.2,26.0,30.06,NE,39,0.0,0.0,36,0.00,,CLR,0.00,VWS V14.01,2013-02-15 11:14:00,
2013-02-15 03:19:00,52.2,24.7,30.06,NE,39,0.0,0.0,34,0.00,,CLR,0.00,VWS V14.01,2013-02-15 11:19:00,
2013-02-15 03:24:00,52.2,24.7,30.06,NE,39,0.0,0.0,34,0.00,,CLR,0.00,VWS V14.01,2013-02-15 11:24:00,
2013-02-15 03:29:00,52.0,23.8,30.06,NE,39,0.0,0.0,33,0.00,,CLR,0.00,VWS V14.01,2013-02-15 11:29:00,
2013-02-15 03:34:00,51.6,24.2,30.06,NE,39,0.0,0.0,34,0.00,,CLR,0.00,VWS V14.01,2013-02-15 11:34:00,
2013-02-15 03:39:00,51.6,24.2,30.06,NE,39,0.0,0.0,34,0.00,,CLR,0.00,VWS V14.01,2013-02-15 11:39:00,
2013-02-15 03:44:00,50.9,23.5,30.06,NE,39,0.0,0.0,34,0.00,,CLR,0.00,VWS V14.01,2013-02-15 11:44:00,
2013-02-15 03:49:00,50.9,23.5,30.06,NE,39,0.0,0.0,34,0.00,,CLR,0.00,VWS V14.01,2013-02-15 11:49:00,
2013-02-15 03:54:00,51.6,22.7,30.06,NE,39,0.0,0.0,32,0.00,,CLR,0.00,VWS V14.01,2013-02-15 11:54:00,
2013-02-15 03:59:00,51.6,22.7,30.06,NE,39,0.0,0.0,32,0.00,,CLR,0.00,VWS V14.01,2013-02-15 11:59:00,
2013-02-15 04:04:00,52.7,22.2,30.06,NE,39,0.0,0.0,30,0.00,,CLR,0.00,VWS V14.01,2013-02-15 12:04:00,
2013-02-15 04:09:00,52.7,22.2,30.06,NE,39,0.0,0.0,30,0.00,,CLR,0.00,VWS V14.01,2013-02-15 12:09:00,
2013-02-15 04:14:00,53.2,21.8,30.06,NE,39,0.0,0.0,29,0.00,,CLR,0.00,VWS V14.01,2013-02-15 12:14:00,
2013-02-15 04:19:00,53.2,21.8,30.06,NE,39,0.0,0.0,29,0.00,,CLR,0.00,VWS V14.01,2013-02-15 12:19:00,
2013-02-15 04:24:00,53.8,21.5,30.06,NE,39,0.0,0.0,28,0.00,,CLR,0.00,VWS V14.01,2013-02-15 12:24:00,
2013-02-15 04:29:00,54.0,20.8,30.06,NE,39,0.0,0.0,27,0.00,,CLR,0.00,VWS V14.01,2013-02-15 12:29:00,
2013-02-15 04:34:00,53.8,20.6,30.06,NE,39,0.0,0.0,27,0.00,,CLR,0.00,VWS V14.01,2013-02-15 12:34:00,
2013-02-15 04:39:00,53.6,20.5,30.06,NE,39,0.0,0.0,27,0.00,,CLR,0.00,VWS V14.01,2013-02-15 12:39:00,
2013-02-15 04:44:00,54.0,20.8,30.06,NE,39,0.0,0.0,27,0.00,,CLR,0.00,VWS V14.01,2013-02-15 12:44:00,
2013-02-15 04:49:00,54.0,20.8,30.06,NE,39,0.0,0.0,27,0.00,,CLR,0.00,VWS V14.01,2013-02-15 12:49:00,
2013-02-15 04:54:00,54.1,20.9,30.06,NE,39,0.0,0.0,27,0.00,,CLR,0.00,VWS V14.01,2013-02-15 12:54:00,
2013-02-15 04:59:00,54.1,20.9,30.06,WNW,287,0.0,0.0,27,0.00,,CLR,0.00,VWS V14.01,2013-02-15 12:59:00,
2013-02-15 05:04:00,54.1,20.9,30.06,WNW,287,0.0,0.0,27,0.00,,CLR,0.00,VWS V14.01,2013-02-15 13:04:00,
2013-02-15 05:09:00,54.1,20.9,30.06,WNW,287,0.0,0.0,27,0.00,,CLR,0.00,VWS V14.01,2013-02-15 13:09:00,
2013-02-15 05:14:00,54.1,20.0,30.06,WNW,287,0.0,0.0,26,0.00,,CLR,0.00,VWS V14.01,2013-02-15 13:14:00,
2013-02-15 05:19:00,54.0,19.9,30.06,WNW,287,0.0,0.0,26,0.00,,CLR,0.00,VWS V14.01,2013-02-15 13:19:00,
2013-02-15 05:24:00,53.8,19.7,30.06,WNW,287,0.0,0.0,26,0.00,,CLR,0.00,VWS V14.01,2013-02-15 13:24:00,
2013-02-15 05:29:00,53.8,19.7,30.06,WNW,287,0.0,0.0,26,0.00,,CLR,0.00,VWS V14.01,2013-02-15 13:29:00,
2013-02-15 05:34:00,53.8,19.7,30.06,WNW,287,0.0,0.0,26,0.00,,CLR,0.00,VWS V14.01,2013-02-15 13:34:00,
2013-02-15 05:39:00,53.6,19.6,30.06,WNW,287,0.0,0.0,26,0.00,,CLR,0.00,VWS V14.01,2013-02-15 13:39:00,
2013-02-15 05:44:00,53.6,19.6,30.06,WNW,287,0.0,0.0,26,0.00,,CLR,0.00,VWS V14.01,2013-02-15 13:44:00,
2013-02-15 05:49:00,54.0,19.9,30.06,WNW,287,0.0,0.0,26,0.00,,CLR,0.00,VWS V14.01,2013-02-15 13:49:00,
2013-02-15 05:54:00,54.1,20.0,30.06,WNW,287,0.0,0.0,26,0.00,,CLR,0.00,VWS V14.01,2013-02-15 13:54:00,
2013-02-15 05:59:00,54.1,20.0,30.06,WNW,287,0.0,0.0,26,0.00,,CLR,0.00,VWS V14.01,2013-02-15 13:59:00,
2013-02-15 06:04:00,54.1,20.0,30.06,WNW,287,0.0,0.0,26,0.00,,CLR,0.00,VWS V14.01,2013-02-15 14:04:00,
2013-02-15 06:09:00,54.1,20.0,30.06,WNW,287,0.0,0.0,26,0.00,,CLR,0.00,VWS V14.01,2013-02-15 14:09:00,
2013-02-15 06:14:00,54.1,20.0,30.06,WNW,287,0.0,0.0,26,0.00,,CLR,0.00,VWS V14.01,2013-02-15 14:14:00,
2013-02-15 06:19:00,53.8,19.7,30.06,WNW,287,0.0,0.0,26,0.00,,CLR,0.00,VWS V14.01,2013-02-15 14:19:00,
2013-02-15 06:24:00,53.8,19.7,30.06,WNW,287,0.0,0.0,26,0.00,,CLR,0.00,VWS V14.01,2013-02-15 14:24:00,
2013-02-15 06:29:00,53.8,19.7,30.06,WNW,287,0.0,0.0,26,0.00,,CLR,0.00,VWS V14.01,2013-02-15 14:29:00,
2013-02-15 06:34:00,53.8,19.7,30.06,WNW,287,0.0,0.0,26,0.00,,CLR,0.00,VWS V14.01,2013-02-15 14:34:00,
2013-02-15 06:39:00,53.8,19.7,30.06,WNW,287,0.0,0.0,26,0.00,,CLR,0.00,VWS V14.01,2013-02-15 14:39:00,
2013-02-15 06:44:00,53.8,19.7,30.06,WNW,287,0.0,0.0,26,0.00,,CLR,0.00,VWS V14.01,2013-02-15 14:44:00,
2013-02-15 06:49:00,54.0,19.9,30.06,WNW,287,0.0,0.0,26,0.00,,CLR,0.00,VWS V14.01,2013-02-15 14:49:00,
2013-02-15 06:54:00,54.0,19.9,30.06,WNW,287,0.0,0.0,26,0.00,,CLR,0.00,VWS V14.01,2013-02-15 14:54:00,
2013-02-15 06:59:00,53.6,19.6,30.06,WNW,287,0.0,0.0,26,0.00,,CLR,0.00,VWS V14.01,2013-02-15 14:59:00,
2013-02-15 07:04:00,53.6,19.6,30.06,WNW,287,0.0,0.0,26,0.00,,CLR,0.00,VWS V14.01,2013-02-15 15:04:00,
2013-02-15 07:09:00,53.4,20.3,30.06,WNW,287,0.0,0.0,27,0.00,,CLR,0.00,VWS V14.01,2013-02-15 15:09:00,
2013-02-15 07:14:00,53.4,20.3,30.09,WNW,287,0.0,0.0,27,0.00,,CLR,0.00,VWS V14.01,2013-02-15 15:14:00,
2013-02-15 07:19:00,53.8,19.7,30.09,WNW,287,0.0,0.0,26,0.00,,CLR,0.00,VWS V14.01,2013-02-15 15:19:00,
2013-02-15 07:24:00,53.8,19.7,30.09,WNW,287,0.0,0.0,26,0.00,,CLR,0.00,VWS V14.01,2013-02-15 15:24:00,
2013-02-15 07:29:00,54.5,20.3,30.09,WNW,287,0.0,0.0,26,0.00,,CLR,0.00,VWS V14.01,2013-02-15 15:29:00,
2013-02-15 07:34:00,54.5,20.3,30.09,WNW,287,0.0,0.0,26,0.00,,CLR,0.00,VWS V14.01,2013-02-15 15:34:00,
2013-02-15 07:39:00,54.7,20.5,30.09,WNW,287,0.0,0.0,26,0.00,,CLR,0.00,VWS V14.01,2013-02-15 15:39:00,
2013-02-15 07:44:00,54.7,20.5,30.09,WNW,287,0.0,0.0,26,0.00,,CLR,0.00,VWS V14.01,2013-02-15 15:44:00,
2013-02-15 07:49:00,54.7,20.5,30.09,WNW,287,0.0,0.0,26,0.00,,CLR,0.00,VWS V14.01,2013-02-15 15:49:00,
2013-02-15 07:54:00,54.7,20.5,30.09,WNW,287,0.0,0.0,26,0.00,,CLR,0.00,VWS V14.01,2013-02-15 15:54:00,
2013-02-15 07:58:00,54.7,20.5,30.09,WNW,287,0.0,0.0,26,0.00,,CLR,0.00,VWS V14.01,2013-02-15 15:58:00,
2013-02-15 08:03:00,54.5,20.3,30.09,WNW,287,0.0,0.0,26,0.00,,CLR,0.00,VWS V14.01,2013-02-15 16:03:00,
2013-02-15 08:08:00,54.5,20.3,30.09,WNW,287,0.0,0.0,26,0.00,,CLR,0.00,VWS V14.01,2013-02-15 16:08:00,
2013-02-15 08:13:00,54.7,20.5,30.09,WNW,287,0.0,0.0,26,0.00,,CLR,0.00,VWS V14.01,2013-02-15 16:13:00,
2013-02-15 08:18:00,54.7,20.5,30.09,WNW,287,0.0,0.0,26,0.00,,CLR,0.00,VWS V14.01,2013-02-15 16:18:00,
2013-02-15 08:23:00,54.5,20.3,30.09,WNW,287,0.0,0.0,26,0.00,,CLR,0.00,VWS V14.01,2013-02-15 16:23:00,
2013-02-15 08:28:00,54.5,20.3,30.09,WNW,287,0.0,0.0,26,0.00,,CLR,0.00,VWS V14.01,2013-02-15 16:28:00,
2013-02-15 08:33:00,54.5,20.3,30.09,WNW,287,0.0,0.0,26,0.00,,CLR,0.00,VWS V14.01,2013-02-15 16:33:00,
2013-02-15 08:38:00,54.5,20.3,30.09,WNW,287,0.0,0.0,26,0.00,,CLR,0.00,VWS V14.01,2013-02-15 16:38:00,
2013-02-15 08:43:00,55.0,20.8,30.09,WNW,287,0.0,0.0,26,0.00,,CLR,0.00,VWS V14.01,2013-02-15 16:43:00,
2013-02-15 08:48:00,55.4,21.1,30.09,WNW,287,0.0,0.0,26,0.00,,CLR,0.00,VWS V14.01,2013-02-15 16:48:00,
2013-02-15 08:53:00,55.6,21.3,30.09,WNW,287,0.0,0.0,26,0.00,,CLR,0.00,VWS V14.01,2013-02-15 16:53:00,
2013-02-15 08:58:00,55.6,21.3,30.09,WNW,287,0.0,0.0,26,0.00,,CLR,0.00,VWS V14.01,2013-02-15 16:58:00,
2013-02-15 09:03:00,56.3,21.9,30.09,WNW,287,0.0,0.0,26,0.00,,CLR,0.00,VWS V14.01,2013-02-15 17:03:00,
2013-02-15 09:08:00,56.3,21.9,30.09,WNW,287,0.0,0.0,26,0.00,,CLR,0.00,VWS V14.01,2013-02-15 17:08:00,
2013-02-15 09:13:00,56.7,22.2,30.09,WNW,287,0.0,0.0,26,0.00,,CLR,0.00,VWS V14.01,2013-02-15 17:13:00,
2013-02-15 09:18:00,57.0,22.5,30.09,WNW,287,0.0,0.0,26,0.00,,CLR,0.00,VWS V14.01,2013-02-15 17:18:00,
2013-02-15 09:23:00,57.2,22.6,30.09,WNW,287,0.0,0.0,26,0.00,,CLR,0.00,VWS V14.01,2013-02-15 17:23:00,
2013-02-15 09:28:00,57.7,23.1,30.09,NNW,331,0.0,0.0,26,0.00,,CLR,0.00,VWS V14.01,2013-02-15 17:28:00,
2013-02-15 09:33:00,58.3,23.6,30.09,NW,317,0.0,0.0,26,0.00,,CLR,0.00,VWS V14.01,2013-02-15 17:33:00,
2013-02-15 09:38:00,58.8,24.0,30.09,NW,313,0.0,0.0,26,0.00,,CLR,0.00,VWS V14.01,2013-02-15 17:38:00,
2013-02-15 09:43:00,58.8,24.0,30.09,NW,314,0.0,0.0,26,0.00,,CLR,0.00,VWS V14.01,2013-02-15 17:43:00,
2013-02-15 09:48:00,59.7,23.9,30.09,NW,313,0.0,0.0,25,0.00,,CLR,0.00,VWS V14.01,2013-02-15 17:48:00,
2013-02-15 09:53:00,59.9,24.0,30.09,NW,313,0.0,0.0,25,0.00,,CLR,0.00,VWS V14.01,2013-02-15 17:53:00,
2013-02-15 09:58:00,61.0,24.9,30.09,NW,313,0.0,0.0,25,0.00,,CLR,0.00,VWS V14.01,2013-02-15 17:58:00,
2013-02-15 10:03:00,61.0,24.9,30.09,NW,308,0.0,0.0,25,0.00,,CLR,0.00,VWS V14.01,2013-02-15 18:03:00,
2013-02-15 10:08:00,61.0,24.9,30.09,NW,325,0.0,0.0,25,0.00,,CLR,0.00,VWS V14.01,2013-02-15 18:08:00,
2013-02-15 10:13:00,62.6,25.3,30.09,NW,325,0.0,0.0,24,0.00,,CLR,0.00,VWS V14.01,2013-02-15 18:13:00,
2013-02-15 10:18:00,62.6,25.3,30.09,NW,320,0.0,0.0,24,0.00,,CLR,0.00,VWS V14.01,2013-02-15 18:18:00,
2013-02-15 10:23:00,63.9,26.4,30.09,NW,320,0.0,0.0,24,0.00,,CLR,0.00,VWS V14.01,2013-02-15 18:23:00,
2013-02-15 10:28:00,64.4,26.9,30.09,NW,320,0.0,0.0,24,0.00,,CLR,0.00,VWS V14.01,2013-02-15 18:28:00,
2013-02-15 10:33:00,64.9,26.3,30.09,SSW,212,0.0,0.0,23,0.00,,CLR,0.00,VWS V14.01,2013-02-15 18:33:00,
2013-02-15 10:38:00,64.9,26.3,30.12,SSW,212,0.0,0.0,23,0.00,,CLR,0.00,VWS V14.01,2013-02-15 18:38:00,
2013-02-15 10:43:00,64.9,26.3,30.12,SSW,212,0.0,0.0,23,0.00,,CLR,0.00,VWS V14.01,2013-02-15 18:43:00,
2013-02-15 10:48:00,66.9,27.9,30.12,SSW,212,0.0,0.0,23,0.00,,CLR,0.00,VWS V14.01,2013-02-15 18:48:00,
2013-02-15 10:53:00,66.9,27.9,30.12,SSW,212,0.0,0.0,23,0.00,,CLR,0.00,VWS V14.01,2013-02-15 18:53:00,
2013-02-15 10:58:00,66.9,27.9,30.12,SW,230,0.0,0.0,23,0.00,,CLR,0.00,VWS V14.01,2013-02-15 18:58:00,
2013-02-15 11:03:00,69.4,30.1,30.12,WSW,241,0.0,0.0,23,0.00,,CLR,0.00,VWS V14.01,2013-02-15 19:03:00,
2013-02-15 11:08:00,70.2,29.6,30.12,WSW,241,0.0,0.0,22,0.00,,CLR,0.00,VWS V14.01,2013-02-15 19:08:00,
2013-02-15 11:13:00,70.2,29.6,30.12,SSE,162,0.0,0.0,22,0.00,,CLR,0.00,VWS V14.01,2013-02-15 19:13:00,
2013-02-15 11:18:00,70.7,30.0,30.12,ENE,63,0.0,0.0,22,0.00,,CLR,0.00,VWS V14.01,2013-02-15 19:18:00,
2013-02-15 11:23:00,70.7,30.0,30.12,ENE,63,0.0,0.0,22,0.00,,CLR,0.00,VWS V14.01,2013-02-15 19:23:00,
2013-02-15 11:28:00,70.7,30.0,30.12,ENE,63,0.0,0.0,22,0.00,,CLR,0.00,VWS V14.01,2013-02-15 19:28:00,
2013-02-15 11:33:00,72.0,31.1,30.12,NE,48,0.0,0.0,22,0.00,,CLR,0.00,VWS V14.01,2013-02-15 19:33:00,
2013-02-15 11:38:00,72.0,31.1,30.12,WNW,291,0.0,0.0,22,0.00,,CLR,0.00,VWS V14.01,2013-02-15 19:38:00,
2013-02-15 11:43:00,72.1,31.2,30.09,WNW,291,0.0,0.0,22,0.00,,CLR,0.00,VWS V14.01,2013-02-15 19:43:00,
2013-02-15 11:48:00,72.1,31.2,30.09,WNW,291,0.0,0.0,22,0.00,,CLR,0.00,VWS V14.01,2013-02-15 19:48:00,
2013-02-15 11:53:00,72.1,31.2,30.09,WNW,291,0.0,0.0,22,0.00,,CLR,0.00,VWS V14.01,2013-02-15 19:53:00,
2013-02-15 11:58:00,72.0,31.1,30.09,WNW,291,0.0,0.0,22,0.00,,CLR,0.00,VWS V14.01,2013-02-15 19:58:00,
2013-02-15 12:03:00,72.0,31.1,30.09,West,268,0.0,0.0,22,0.00,,CLR,0.00,VWS V14.01,2013-02-15 20:03:00,
2013-02-15 12:08:00,72.5,31.5,30.09,WNW,301,0.0,0.0,22,0.00,,CLR,0.00,VWS V14.01,2013-02-15 20:08:00,
2013-02-15 12:13:00,72.5,31.5,30.09,West,276,0.0,0.0,22,0.00,,CLR,0.00,VWS V14.01,2013-02-15 20:13:00,
2013-02-15 12:18:00,72.9,31.8,30.09,West,276,0.0,0.0,22,0.00,,CLR,0.00,VWS V14.01,2013-02-15 20:18:00,
2013-02-15 12:23:00,73.4,31.1,30.09,West,276,0.0,0.0,21,0.00,,CLR,0.00,VWS V14.01,2013-02-15 20:23:00,
2013-02-15 12:28:00,73.4,31.1,30.09,NW,318,0.0,0.0,21,0.00,,CLR,0.00,VWS V14.01,2013-02-15 20:28:00,
2013-02-15 12:33:00,73.4,31.1,30.09,NW,318,0.0,0.0,21,0.00,,CLR,0.00,VWS V14.01,2013-02-15 20:33:00,
2013-02-15 12:38:00,73.4,31.1,30.09,NW,317,0.0,0.0,21,0.00,,CLR,0.00,VWS V14.01,2013-02-15 20:38:00,
2013-02-15 12:43:00,72.9,31.8,30.09,NW,306,0.0,0.0,22,0.00,,CLR,0.00,VWS V14.01,2013-02-15 20:43:00,
2013-02-15 12:48:00,72.9,31.8,30.09,NNW,327,0.0,0.0,22,0.00,,CLR,0.00,VWS V14.01,2013-02-15 20:48:00,
2013-02-15 12:53:00,72.3,31.4,30.09,NW,316,0.0,0.0,22,0.00,,CLR,0.00,VWS V14.01,2013-02-15 20:53:00,
2013-02-15 12:58:00,72.3,31.4,30.09,NW,319,0.0,0.0,22,0.00,,CLR,0.00,VWS V14.01,2013-02-15 20:58:00,
2013-02-15 13:03:00,72.3,31.4,30.06,NNW,331,0.0,0.0,22,0.00,,CLR,0.00,VWS V14.01,2013-02-15 21:03:00,
2013-02-15 13:08:00,73.0,32.0,30.06,West,277,0.0,0.0,22,0.00,,CLR,0.00,VWS V14.01,2013-02-15 21:08:00,
2013-02-15 13:13:00,73.4,31.1,30.06,ENE,60,0.0,0.0,21,0.00,,CLR,0.00,VWS V14.01,2013-02-15 21:13:00,
2013-02-15 13:18:00,73.6,31.3,30.06,NW,321,0.0,0.0,21,0.00,,CLR,0.00,VWS V14.01,2013-02-15 21:18:00,
2013-02-15 13:23:00,73.4,31.1,30.06,NW,323,0.0,0.0,21,0.00,,CLR,0.00,VWS V14.01,2013-02-15 21:23:00,
2013-02-15 13:28:00,73.6,31.3,30.06,NNE,15,0.0,0.0,21,0.00,,CLR,0.00,VWS V14.01,2013-02-15 21:28:00,
2013-02-15 13:33:00,73.8,31.4,30.06,NNW,328,0.0,0.0,21,0.00,,CLR,0.00,VWS V14.01,2013-02-15 21:33:00,
2013-02-15 13:38:00,73.8,31.4,30.06,NNW,340,0.0,0.0,21,0.00,,CLR,0.00,VWS V14.01,2013-02-15 21:38:00,
2013-02-15 13:43:00,74.1,31.7,30.06,West,275,0.0,3.1,21,0.00,,CLR,0.00,VWS V14.01,2013-02-15 21:43:00,
2013-02-15 13:48:00,74.1,31.7,30.06,NW,308,0.0,0.0,21,0.00,,CLR,0.00,VWS V14.01,2013-02-15 21:48:00,
2013-02-15 13:53:00,74.5,32.0,30.06,NW,307,3.1,3.1,21,0.00,,CLR,0.00,VWS V14.01,2013-02-15 21:53:00,
2013-02-15 13:58:00,74.5,32.0,30.06,ENE,77,0.0,0.0,21,0.00,,CLR,0.00,VWS V14.01,2013-02-15 21:58:00,
2013-02-15 14:03:00,75.0,32.5,30.06,WSW,253,0.0,0.0,21,0.00,,CLR,0.00,VWS V14.01,2013-02-15 22:03:00,
2013-02-15 14:08:00,75.0,32.5,30.06,North,9,0.0,0.0,21,0.00,,CLR,0.00,VWS V14.01,2013-02-15 22:08:00,
2013-02-15 14:13:00,75.0,32.5,30.06,NW,305,0.0,0.0,21,0.00,,CLR,0.00,VWS V14.01,2013-02-15 22:13:00,
2013-02-15 14:18:00,75.0,32.5,30.06,NW,315,0.0,0.0,21,0.00,,CLR,0.00,VWS V14.01,2013-02-15 22:18:00,
2013-02-15 14:23:00,75.2,32.6,30.06,NE,51,0.0,0.0,21,0.00,,CLR,0.00,VWS V14.01,2013-02-15 22:23:00,
2013-02-15 14:28:00,75.2,32.6,30.06,NNW,337,0.0,0.0,21,0.00,,CLR,0.00,VWS V14.01,2013-02-15 22:28:00,
2013-02-15 14:33:00,75.2,32.6,30.06,NE,55,0.0,0.0,21,0.00,,CLR,0.00,VWS V14.01,2013-02-15 22:33:00,
2013-02-15 14:38:00,76.1,33.4,30.06,ENE,74,0.0,0.0,21,0.00,,CLR,0.00,VWS V14.01,2013-02-15 22:38:00,
2013-02-15 14:43:00,75.6,32.9,30.06,WSW,246,0.0,0.0,21,0.00,,CLR,0.00,VWS V14.01,2013-02-15 22:43:00,
2013-02-15 14:48:00,75.7,33.1,30.06,NW,316,2.7,2.7,21,0.00,,CLR,0.00,VWS V14.01,2013-02-15 22:48:00,
2013-02-15 14:53:00,75.7,33.1,30.06,SW,234,0.0,0.0,21,0.00,,CLR,0.00,VWS V14.01,2013-02-15 22:53:00,
2013-02-15 14:58:00,75.7,33.1,30.06,NE,44,0.0,3.1,21,0.00,,CLR,0.00,VWS V14.01,2013-02-15 22:58:00,
2013-02-15 15:03:00,76.8,34.0,30.06,West,275,0.0,0.0,21,0.00,,CLR,0.00,VWS V14.01,2013-02-15 23:03:00,
2013-02-15 15:08:00,77.0,34.1,30.06,WNW,297,0.0,0.0,21,0.00,,CLR,0.00,VWS V14.01,2013-02-15 23:08:00,
2013-02-15 15:13:00,77.2,34.3,30.06,WNW,294,0.0,0.0,21,0.00,,CLR,0.00,VWS V14.01,2013-02-15 23:13:00,
2013-02-15 15:18:00,77.2,34.3,30.06,NW,314,0.0,0.0,21,0.00,,CLR,0.00,VWS V14.01,2013-02-15 23:18:00,
2013-02-15 15:23:00,77.2,34.3,30.06,NW,319,0.0,0.0,21,0.00,,CLR,0.00,VWS V14.01,2013-02-15 23:23:00,
2013-02-15 15:28:00,77.0,34.1,30.03,NW,317,2.7,2.7,21,0.00,,CLR,0.00,VWS V14.01,2013-02-15 23:28:00,
2013-02-15 15:33:00,77.0,34.1,30.03,NNW,339,0.0,0.0,21,0.00,,CLR,0.00,VWS V14.01,2013-02-15 23:33:00,
2013-02-15 15:38:00,77.2,34.3,30.03,NNW,343,0.0,0.0,21,0.00,,CLR,0.00,VWS V14.01,2013-02-15 23:38:00,
2013-02-15 15:43:00,77.2,34.3,30.03,ENE,61,0.0,0.0,21,0.00,,CLR,0.00,VWS V14.01,2013-02-15 23:43:00,
2013-02-15 15:48:00,77.2,34.3,30.03,WNW,294,0.0,0.0,21,0.00,,CLR,0.00,VWS V14.01,2013-02-15 23:48:00,
2013-02-15 15:53:00,77.2,34.3,30.03,NE,56,0.0,0.0,21,0.00,,CLR,0.00,VWS V14.01,2013-02-15 23:53:00,
2013-02-15 15:58:00,77.2,34.3,30.03,NNE,18,0.0,0.0,21,0.00,,CLR,0.00,VWS V14.01,2013-02-15 23:58:00,
2013-02-15 16:03:00,76.8,34.0,30.03,NW,321,0.0,0.0,21,0.00,,CLR,0.00,VWS V14.01,2013-02-16 00:03:00,
2013-02-15 16:08:00,76.8,34.0,30.03,NW,308,0.0,0.0,21,0.00,,CLR,0.00,VWS V14.01,2013-02-16 00:08:00,
2013-02-15 16:13:00,76.1,33.4,30.03,WNW,300,0.0,0.0,21,0.00,,CLR,0.00,VWS V14.01,2013-02-16 00:13:00,
2013-02-15 16:18:00,75.9,33.2,30.03,WSW,249,0.0,0.0,21,0.00,,CLR,0.00,VWS V14.01,2013-02-16 00:18:00,
2013-02-15 16:23:00,75.7,33.1,30.03,NW,305,0.0,0.0,21,0.00,,CLR,0.00,VWS V14.01,2013-02-16 00:23:00,
2013-02-15 16:28:00,75.0,32.5,30.03,NW,310,0.0,0.0,21,0.00,,CLR,0.00,VWS V14.01,2013-02-16 00:28:00,
2013-02-15 16:33:00,75.0,32.5,30.03,North,353,0.0,0.0,21,0.00,,CLR,0.00,VWS V14.01,2013-02-16 00:33:00,
2013-02-15 16:38:00,74.1,31.7,30.03,NW,318,0.0,0.0,21,0.00,,CLR,0.00,VWS V14.01,2013-02-16 00:38:00,
2013-02-15 16:43:00,74.1,31.7,30.03,WSW,257,0.0,0.0,21,0.00,,CLR,0.00,VWS V14.01,2013-02-16 00:43:00,
2013-02-15 16:48:00,73.2,32.1,30.03,WSW,249,0.0,0.0,22,0.00,,CLR,0.00,VWS V14.01,2013-02-16 00:48:00,
2013-02-15 16:53:00,73.2,32.1,30.03,WSW,249,0.0,0.0,22,0.00,,CLR,0.00,VWS V14.01,2013-02-16 00:53:00,
2013-02-15 16:58:00,72.5,31.5,30.03,WSW,248,0.0,0.0,22,0.00,,CLR,0.00,VWS V14.01,2013-02-16 00:58:00,
2013-02-15 17:03:00,72.1,31.2,30.03,WNW,289,0.0,0.0,22,0.00,,CLR,0.00,VWS V14.01,2013-02-16 01:03:00,
2013-02-15 17:08:00,72.0,31.1,30.03,WNW,290,0.0,0.0,22,0.00,,CLR,0.00,VWS V14.01,2013-02-16 01:08:00,
2013-02-15 17:13:00,72.0,31.1,30.03,WNW,290,0.0,0.0,22,0.00,,CLR,0.00,VWS V14.01,2013-02-16 01:13:00,
2013-02-15 17:18:00,72.0,31.1,30.03,WNW,290,0.0,0.0,22,0.00,,CLR,0.00,VWS V14.01,2013-02-16 01:18:00,
2013-02-15 17:23:00,71.1,30.3,30.03,WNW,290,0.0,0.0,22,0.00,,CLR,0.00,VWS V14.01,2013-02-16 01:23:00,
2013-02-15 17:28:00,70.9,30.2,30.03,WNW,290,0.0,0.0,22,0.00,,CLR,0.00,VWS V14.01,2013-02-16 01:28:00,
2013-02-15 17:33:00,70.3,29.7,30.03,WNW,290,0.0,0.0,22,0.00,,CLR,0.00,VWS V14.01,2013-02-16 01:33:00,
2013-02-15 17:38:00,70.3,29.7,30.03,WNW,290,0.0,0.0,22,0.00,,CLR,0.00,VWS V14.01,2013-02-16 01:38:00,
2013-02-15 17:43:00,70.3,29.7,30.03,WNW,290,0.0,0.0,22,0.00,,CLR,0.00,VWS V14.01,2013-02-16 01:43:00,
2013-02-15 17:48:00,68.9,29.6,30.03,WNW,290,0.0,0.0,23,0.00,,CLR,0.00,VWS V14.01,2013-02-16 01:48:00,
2013-02-15 17:53:00,68.2,29.0,30.03,WNW,290,0.0,0.0,23,0.00,,CLR,0.00,VWS V14.01,2013-02-16 01:53:00,
2013-02-15 17:58:00,67.3,28.2,30.03,WNW,290,0.0,0.0,23,0.00,,CLR,0.00,VWS V14.01,2013-02-16 01:58:00,
2013-02-15 18:03:00,66.4,27.5,30.03,WNW,290,0.0,0.0,23,0.00,,CLR,0.00,VWS V14.01,2013-02-16 02:03:00,
2013-02-15 18:08:00,65.8,27.0,30.03,WNW,290,0.0,0.0,23,0.00,,CLR,0.00,VWS V14.01,2013-02-16 02:08:00,
2013-02-15 18:13:00,65.5,26.7,30.03,WNW,290,0.0,0.0,23,0.00,,CLR,0.00,VWS V14.01,2013-02-16 02:13:00,
2013-02-15 18:18:00,65.5,26.7,30.03,WNW,290,0.0,0.0,23,0.00,,CLR,0.00,VWS V14.01,2013-02-16 02:18:00,
2013-02-15 18:23:00,64.4,25.8,30.03,WNW,290,0.0,0.0,23,0.00,,CLR,0.00,VWS V14.01,2013-02-16 02:23:00,
2013-02-15 18:28:00,64.4,25.8,30.03,WNW,290,0.0,0.0,23,0.00,,CLR,0.00,VWS V14.01,2013-02-16 02:28:00,
2013-02-15 18:33:00,63.5,26.1,30.03,WNW,290,0.0,0.0,24,0.00,,CLR,0.00,VWS V14.01,2013-02-16 02:33:00,
2013-02-15 18:38:00,63.3,25.9,30.03,WNW,290,0.0,0.0,24,0.00,,CLR,0.00,VWS V14.01,2013-02-16 02:38:00,
2013-02-15 18:43:00,63.3,25.9,30.03,WNW,290,0.0,0.0,24,0.00,,CLR,0.00,VWS V14.01,2013-02-16 02:43:00,
2013-02-15 18:48:00,63.3,25.9,30.03,WNW,290,0.0,0.0,24,0.00,,CLR,0.00,VWS V14.01,2013-02-16 02:48:00,
2013-02-15 18:53:00,63.3,25.9,30.03,WNW,289,0.0,0.0,24,0.00,,CLR,0.00,VWS V14.01,2013-02-16 02:53:00,
2013-02-15 18:58:00,63.1,25.8,30.06,NE,56,0.0,0.0,24,0.00,,CLR,0.00,VWS V14.01,2013-02-16 02:58:00,
2013-02-15 19:03:00,63.1,25.8,30.06,ENE,68,0.0,0.0,24,0.00,,CLR,0.00,VWS V14.01,2013-02-16 03:03:00,
2013-02-15 19:08:00,63.0,25.6,30.06,ENE,66,0.0,0.0,24,0.00,,CLR,0.00,VWS V14.01,2013-02-16 03:08:00,
2013-02-15 19:13:00,63.0,25.6,30.06,ENE,65,0.0,0.0,24,0.00,,CLR,0.00,VWS V14.01,2013-02-16 03:13:00,
2013-02-15 19:18:00,63.0,25.6,30.06,ENE,65,0.0,0.0,24,0.00,,CLR,0.00,VWS V14.01,2013-02-16 03:18:00,
2013-02-15 19:23:00,62.8,25.5,30.06,ENE,65,0.0,0.0,24,0.00,,CLR,0.00,VWS V14.01,2013-02-16 03:23:00,
2013-02-15 19:28:00,62.8,25.5,30.06,ENE,65,0.0,0.0,24,0.00,,CLR,0.00,VWS V14.01,2013-02-16 03:28:00,
2013-02-15 19:33:00,62.8,25.5,30.06,ENE,65,0.0,0.0,24,0.00,,CLR,0.00,VWS V14.01,2013-02-16 03:33:00,
2013-02-15 19:38:00,62.8,25.5,30.06,ENE,65,0.0,0.0,24,0.00,,CLR,0.00,VWS V14.01,2013-02-16 03:38:00,
2013-02-15 19:43:00,62.6,25.3,30.06,ENE,65,0.0,0.0,24,0.00,,CLR,0.00,VWS V14.01,2013-02-16 03:43:00,
2013-02-15 19:48:00,62.4,25.2,30.06,ENE,64,0.0,0.0,24,0.00,,CLR,0.00,VWS V14.01,2013-02-16 03:48:00,
2013-02-15 19:53:00,62.4,25.2,30.06,ENE,65,0.0,0.0,24,0.00,,CLR,0.00,VWS V14.01,2013-02-16 03:53:00,
2013-02-15 19:58:00,62.4,25.2,30.06,ENE,64,0.0,0.0,24,0.00,,CLR,0.00,VWS V14.01,2013-02-16 03:58:00,
2013-02-15 20:03:00,62.4,25.2,30.06,ENE,64,0.0,0.0,24,0.00,,CLR,0.00,VWS V14.01,2013-02-16 04:03:00,
2013-02-15 20:08:00,61.9,24.7,30.06,ENE,64,0.0,0.0,24,0.00,,CLR,0.00,VWS V14.01,2013-02-16 04:08:00,
2013-02-15 20:13:00,61.9,24.7,30.06,ENE,64,0.0,0.0,24,0.00,,CLR,0.00,VWS V14.01,2013-02-16 04:13:00,
2013-02-15 20:18:00,62.1,24.9,30.06,ENE,64,0.0,0.0,24,0.00,,CLR,0.00,VWS V14.01,2013-02-16 04:18:00,
2013-02-15 20:23:00,62.1,24.9,30.06,ENE,65,0.0,0.0,24,0.00,,CLR,0.00,VWS V14.01,2013-02-16 04:23:00,
2013-02-15 20:28:00,62.1,24.9,30.06,ENE,66,0.0,0.0,24,0.00,,CLR,0.00,VWS V14.01,2013-02-16 04:28:00,
2013-02-15 20:33:00,61.9,24.7,30.06,ENE,66,0.0,0.0,24,0.00,,CLR,0.00,VWS V14.01,2013-02-16 04:33:00,
2013-02-15 20:38:00,61.9,24.7,30.06,ENE,65,0.0,0.0,24,0.00,,CLR,0.00,VWS V14.01,2013-02-16 04:38:00,
2013-02-15 20:43:00,61.7,24.6,30.06,ENE,65,0.0,0.0,24,0.00,,CLR,0.00,VWS V14.01,2013-02-16 04:43:00,
2013-02-15 20:48:00,61.7,24.6,30.06,ENE,65,0.0,0.0,24,0.00,,CLR,0.00,VWS V14.01,2013-02-16 04:48:00,
2013-02-15 20:53:00,61.3,24.3,30.06,ENE,65,0.0,0.0,24,0.00,,CLR,0.00,VWS V14.01,2013-02-16 04:53:00,
2013-02-15 20:58:00,61.2,24.1,30.06,ENE,65,0.0,0.0,24,0.00,,CLR,0.00,VWS V14.01,2013-02-16 04:58:00,
2013-02-15 21:00:00,61.2,24.1,30.06,ENE,65,0.0,0.0,24,0.00,,CLR,0.00,VWS V14.01,2013-02-16 05:00:00,
2013-02-15 21:05:00,61.2,24.1,30.06,ENE,65,0.0,0.0,24,0.00,,CLR,0.00,VWS V14.01,2013-02-16 05:05:00,
2013-02-15 21:10:00,61.2,24.1,30.06,ENE,65,0.0,0.0,24,0.00,,CLR,0.00,VWS V14.01,2013-02-16 05:10:00,
2013-02-15 21:15:00,61.2,24.1,30.06,ENE,62,0.0,0.0,24,0.00,,CLR,0.00,VWS V14.01,2013-02-16 05:15:00,
2013-02-15 21:20:00,61.2,24.1,30.06,ENE,66,0.0,0.0,24,0.00,,CLR,0.00,VWS V14.01,2013-02-16 05:20:00,
2013-02-15 21:23:00,61.2,24.1,30.06,ENE,64,0.0,0.0,24,0.00,,CLR,0.00,VWS V14.01,2013-02-16 05:23:00,
2013-02-15 21:28:00,61.0,24.0,30.06,ENE,65,0.0,0.0,24,0.00,,CLR,0.00,VWS V14.01,2013-02-16 05:28:00,
2013-02-15 21:33:00,61.0,24.0,30.06,ENE,63,0.0,0.0,24,0.00,,CLR,0.00,VWS V14.01,2013-02-16 05:33:00,
2013-02-15 21:38:00,60.8,23.8,30.06,ENE,63,0.0,0.0,24,0.00,,CLR,0.00,VWS V14.01,2013-02-16 05:38:00,
2013-02-15 21:43:00,60.8,23.8,30.06,ENE,62,0.0,0.0,24,0.00,,CLR,0.00,VWS V14.01,2013-02-16 05:43:00,
2013-02-15 21:48:00,60.8,23.8,30.06,ENE,65,0.0,0.0,24,0.00,,CLR,0.00,VWS V14.01,2013-02-16 05:48:00,
2013-02-15 21:53:00,60.8,23.8,30.06,ENE,66,0.0,0.0,24,0.00,,CLR,0.00,VWS V14.01,2013-02-16 05:53:00,
2013-02-15 21:58:00,60.8,23.8,30.06,East,79,0.0,0.0,24,0.00,,CLR,0.00,VWS V14.01,2013-02-16 05:58:00,
2013-02-15 22:03:00,60.8,23.8,30.06,East,79,0.0,0.0,24,0.00,,CLR,0.00,VWS V14.01,2013-02-16 06:03:00,
2013-02-15 22:08:00,60.6,24.6,30.06,ENE,78,0.0,0.0,25,0.00,,CLR,0.00,VWS V14.01,2013-02-16 06:08:00,
2013-02-15 22:13:00,60.4,24.5,30.06,East,79,0.0,0.0,25,0.00,,CLR,0.00,VWS V14.01,2013-02-16 06:13:00,
2013-02-15 22:18:00,60.4,24.5,30.06,East,79,0.0,0.0,25,0.00,,CLR,0.00,VWS V14.01,2013-02-16 06:18:00,
2013-02-15 22:23:00,60.3,24.3,30.06,East,79,0.0,0.0,25,0.00,,CLR,0.00,VWS V14.01,2013-02-16 06:23:00,
2013-02-15 22:28:00,60.1,24.2,30.06,East,87,0.0,0.0,25,0.00,,CLR,0.00,VWS V14.01,2013-02-16 06:28:00,
2013-02-15 22:33:00,60.1,24.2,30.06,East,87,0.0,0.0,25,0.00,,CLR,0.00,VWS V14.01,2013-02-16 06:33:00,
2013-02-15 22:38:00,59.7,23.9,30.06,East,87,0.0,0.0,25,0.00,,CLR,0.00,VWS V14.01,2013-02-16 06:38:00,
2013-02-15 22:43:00,59.4,23.6,30.06,East,89,0.0,0.0,25,0.00,,CLR,0.00,VWS V14.01,2013-02-16 06:43:00,
2013-02-15 22:48:00,59.4,23.6,30.06,East,80,0.0,0.0,25,0.00,,CLR,0.00,VWS V14.01,2013-02-16 06:48:00,
2013-02-15 22:53:00,59.4,23.6,30.06,East,79,0.0,0.0,25,0.00,,CLR,0.00,VWS V14.01,2013-02-16 06:53:00,
2013-02-15 22:58:00,59.4,23.6,30.06,East,79,0.0,0.0,25,0.00,,CLR,0.00,VWS V14.01,2013-02-16 06:58:00,
2013-02-15 23:03:00,59.4,23.6,30.06,ENE,74,0.0,0.0,25,0.00,,FEW180,0.00,VWS V14.01,2013-02-16 07:03:00,
2013-02-15 23:08:00,59.4,23.6,30.06,ENE,70,0.0,0.0,25,0.00,,FEW180,0.00,VWS V14.01,2013-02-16 07:08:00,
2013-02-15 23:13:00,59.2,23.4,30.06,ENE,70,0.0,0.0,25,0.00,,FEW180,0.00,VWS V14.01,2013-02-16 07:13:00,
2013-02-15 23:18:00,59.2,23.4,30.06,ENE,70,0.0,0.0,25,0.00,,FEW180,0.00,VWS V14.01,2013-02-16 07:18:00,
2013-02-15 23:23:00,59.2,23.4,30.06,ENE,75,0.0,0.0,25,0.00,,FEW180,0.00,VWS V14.01,2013-02-16 07:23:00,
2013-02-15 23:28:00,59.2,23.4,30.06,ENE,78,0.0,0.0,25,0.00,,FEW180,0.00,VWS V14.01,2013-02-16 07:28:00,
2013-02-15 23:34:00,58.8,23.1,30.06,ENE,77,0.0,0.0,25,0.00,,FEW180,0.00,VWS V14.01,2013-02-16 07:34:00,
2013-02-15 23:39:00,58.3,22.6,30.06,ENE,64,0.0,0.0,25,0.00,,FEW180,0.00,VWS V14.01,2013-02-16 07:39:00,
2013-02-15 23:44:00,58.1,22.5,30.06,East,83,0.0,0.0,25,0.00,,FEW180,0.00,VWS V14.01,2013-02-16 07:44:00,
2013-02-15 23:49:00,57.9,22.3,30.06,East,83,0.0,0.0,25,0.00,,FEW180,0.00,VWS V14.01,2013-02-16 07:49:00,
2013-02-15 23:54:00,57.7,22.2,30.06,East,91,0.0,0.0,25,0.00,,FEW180,0.00,VWS V14.01,2013-02-16 07:54:00,
2013-02-15 23:59:00,57.6,22.0,30.06,ENE,62,0.0,0.0,25,0.00,,FEW180,0.00,VWS V14.01,2013-02-16 07:59:00,